Location: Cosy Dell
(34.2789°N, 117.4537°W)
Time: 20:31:49
(UTC+00:00)

Cosmos 1980 - Pass Details

Date: 14 July 2020
Orbit: 839 x 847 km, 71.0° (Epoch: 13 August)

Event Time Altitude Azimuth Distance (km) Brightness Sun altitude
Rises 04:21:08 0° 199° (SSW) 3,375 6.6 -14.4°
Reaches altitude 10° 04:23:34 10° 200° (SSW) 2,444 5.9 -14.7°
Maximum altitude 04:29:11 89° 288° (WNW) 843 3.7 -15.6°
Drops below altitude 10° 04:34:50 10° 21° (NNE) 2,459 6.4 -16.5°
Sets 04:37:17 0° 21° (NNE) 3,398 7.1 -16.9°
